7 * 24
多渠道服务支持
GOES 7 是美国国家气象局(NOAA)于1987年发射的地球静止环境卫星,主要用于气象观测和天气预报。它搭载了先进的可见光和红外传感器,能够实时监测云层、风暴和地表温度等气象数据。该卫星在1990年代广泛应用于北美地区的天气预警和气候研究。虽然GOES 7 已于2002年退役,但其在气象卫星发展史上具有重要意义,为后续卫星系统奠定了基础。
美国
(US)
| 数据来源 | 国际轨道数据 |
| 星历时间: | 2025-12-12T02:32:46+0800 1天前 查看轨道信息 |
| 半长轴: | 42267.052km |
| 偏心率: | 0.0002294 |
| 轨道倾角: | 13.098° |
| 近地点辐角 | 345.088° |
| 升交点赤经 | 338.954° |
| 平近点角 | 13.357° |
| 近地点: | 35879.22km |
| 远地点: | 35898.614km |
| 周期: | 1441.327分钟 |
| 每日圈数: | 0.999079 |